Home > Time Zones > World Clock > Weather > Oman > Muscat > Past weeks

Flag for Oman Weather past 2 weeks in Muscat, Oman

Now
82 °F

Clear.


Feels Like: 94 °F
Forecast: 83 / 87 °F
Wind: 9 mph from East

Location: International Airport

Current Time: Aug 23, 2014 at 4:01:52 AM

Latest Report: Aug 23, 2014 at 2:50 AM


Visibility: 4 mi

Pressure: 29.56 "Hg

Humidity: 94%

Dew point: 81 °F

Location of MuscatLocation

Historic Weather in Muscat — Graph

°F

Muscat temperature yesterday

Maximum temperature yesterday: 90 °F (at 8:50 AM)
Minimum temperature yesterday: 86 °F (at 3:50 AM)
Average temperature yesterday: 88 °F

Past Weeks' High & Low Weather Summary

 TemperatureHumidityPressure
High95 °F (Aug 12, 9:50 AM)94% (Aug 17, 4:50 AM)29.80 "Hg (Aug 17, 4:50 AM)
Low81 °F (Aug 13, 5:50 AM)53% (Aug 11, 4:50 PM)29.39 "Hg (Aug 8, 2:50 AM)
Average87 °F78%29.56 "Hg
* Reported Aug 8 2:50 AM — Aug 23 2:50 AM, Muscat, Weather by CustomWeather, © 2014

Note: Actual official high and low records may vary slightly from our data, if they occured in-between our weather recording intervals... More about our weather records

Advertising

Muscat weather history for previous 24 hours

 ConditionsComfort  
Time TempWeatherWind HumidityBarometerVisibility
2:50 AM
Aug 23
82 °FClear.9 mph94%29.56 "Hg4 mi
1:50 AM84 °FClear.6 mph89%29.56 "Hg4 mi
12:50 AM84 °FClear.3 mph89%29.56 "Hg4 mi
11:50 PM
Aug 22
86 °FClear.2 mph84%29.56 "Hg4 mi
10:50 PM86 °FClear.5 mph84%29.59 "Hg4 mi
9:50 PM86 °FClear.6 mph84%29.59 "Hg4 mi
8:50 PM86 °FClear.2 mph84%29.59 "Hg4 mi
7:50 PM86 °FClear.5 mph84%29.56 "Hg5 mi
6:50 PM86 °FClear.8 mph84%29.56 "Hg5 mi
5:50 PM88 °FClear.10 mph79%29.53 "Hg5 mi
4:50 PM88 °FClear.14 mph79%29.53 "Hg5 mi
3:50 PM90 °FClear.16 mph75%29.53 "Hg5 mi
2:50 PM90 °FClear.18 mph75%29.53 "Hg5 mi
1:50 PM90 °FClear.17 mph75%29.56 "Hg5 mi
12:50 PM90 °FClear.18 mph75%29.56 "Hg5 mi
11:50 AM90 °FClear.18 mph75%29.59 "Hg5 mi
10:50 AM90 °FSunny.18 mph79%29.59 "Hg10 mi
9:50 AM90 °FClear.17 mph79%29.59 "Hg5 mi
8:50 AM90 °FClear.14 mph79%29.59 "Hg5 mi
7:50 AM88 °FClear.9 mph79%29.56 "Hg5 mi
6:50 AM86 °FPassing clouds.3 mph89%29.56 "Hg4 mi
5:50 AM86 °FClear.5 mph84%29.53 "Hg4 mi
4:50 AM86 °FClear.3 mph84%29.53 "Hg5 mi
Weather by CustomWeather, © 2014

See weather overviewHow to use our weather pages